Location: LDNL
(36.4545°S, 141.6685°E)
Time: 23:22:56
(UTC+10:00)

AO-7 - Visible Passes

Search period start: 18 May 2022 00:00
Search period end: 28 May 2022 00:00
Orbit: 1439 x 1459 km, 101.9° (Epoch: 17 May)

Date Brightness Start Highest point End Pass type
(mag) Time Alt. Az. Time Alt. Az. Time Alt. Az.
18 May ? 03:25:04 10° NE 03:27:21 21° NE 03:27:21 21° NE visible
18 May ? 05:19:19 10° NNW 05:22:16 20° NW 05:22:16 20° NW visible
18 May ? 19:17:04 10° SSW 19:21:40 16° SW 19:26:16 10° W visible
19 May ? 04:17:37 10° N 04:21:11 29° N 04:21:11 29° N visible
19 May ? 18:15:19 10° S 18:22:49 37° WSW 18:30:16 10° NW visible
20 May ? 03:18:11 10° NE 03:20:07 19° NE 03:20:07 19° NE visible
20 May ? 05:11:54 10° NNW 05:15:02 22° NW 05:15:02 22° NW visible
20 May ? 19:09:40 10° SSW 19:14:48 18° SW 19:19:54 10° W visible
21 May ? 04:10:31 10° NNE 04:13:57 29° N 04:13:57 29° N visible
21 May ? 18:08:10 10° S 18:15:51 41° WSW 18:23:30 10° NW visible
22 May ? 03:11:20 10° NE 03:12:52 17° NE 03:12:52 17° NE visible
22 May ? 05:04:33 10° NNW 05:07:48 23° NW 05:07:48 23° NW visible
22 May ? 19:02:20 10° SSW 19:07:54 20° SW 19:13:27 10° W visible
23 May ? 04:03:28 10° NNE 04:06:43 27° NNE 04:06:43 27° NNE visible
23 May ? 06:01:29 10° WNW 06:01:38 10° WNW 06:01:38 10° WNW visible
23 May ? 18:01:01 10° S 18:08:53 46° WSW 18:16:41 10° NW visible
24 May ? 03:04:30 10° NE 03:05:39 15° NE 03:05:39 15° NE visible
24 May ? 04:57:13 10° NNW 05:00:34 24° NNW 05:00:34 24° NNW visible
24 May ? 18:55:03 10° S 19:01:00 22° SW 19:06:57 10° W visible
25 May ? 03:56:26 10° NNE 03:59:29 26° NNE 03:59:29 26° NNE visible
25 May ? 05:53:32 10° NW 05:54:24 12° WNW 05:54:24 12° WNW visible
25 May ? 17:53:54 10° S 18:01:54 50° WSW 18:09:51 10° NW visible
26 May ? 02:57:43 10° NE 02:58:25 13° NE 02:58:25 13° NE visible
26 May ? 04:49:57 10° N 04:53:19 25° NNW 04:53:19 25° NNW visible
26 May ? 18:47:47 10° S 18:54:06 24° SW 19:00:23 10° WNW visible
27 May ? 03:49:25 10° NNE 03:52:15 25° NNE 03:52:15 25° NNE visible
27 May ? 05:45:46 10° NW 05:47:10 13° NW 05:47:10 13° NW visible
27 May ? 17:46:47 10° S 17:54:56 56° WSW 18:02:59 10° NW visible
27 May ? 19:44:02 10° SW 19:45:46 11° SW 19:47:30 10° WSW visible
